Flag for Palestinian Territories Weather past 2 weeks in Nablus, West Bank, Palestinian Territories

75 °F

Light rain. Passing clouds.

Feels Like: 77 °F
Forecast: 64 / 73 °F
Wind: 5 mph from Southwest

Location: Ben Gurion International Airport

Current Time: Oct 7, 2015 at 7:06:49 PM

Latest Report: Oct 7, 2015 at 6:20 PM

Visibility: N/A

Pressure: 29.83 "Hg (28.05 "Hg at 534m altitude)

Humidity: 74%

Dew point: 66 °F

Location of NablusLocation

Historic Weather in Nablus — Graph


Nablus temperature yesterday

Maximum temperature yesterday: 84 °F (at 12:50 PM)
Minimum temperature yesterday: 73 °F (at 3:20 AM)
Average temperature yesterday: 78 °F

Past Weeks' High & Low Weather Summary

High99 °F (Sep 23, 11:50 AM)94% (Oct 7, 6:50 AM)30.12 "Hg (Oct 7, 6:50 AM)
Low68 °F (Oct 7, 2:50 AM)18% (Sep 23, 11:50 AM)29.74 "Hg (Oct 7, 1:50 AM)
Average80 °F63%29.93 "Hg
* Reported Sep 23 7:50 AM — Oct 7 5:50 PM, Nablus, Weather by CustomWeather, © 2015

Note: Actual official high and low records may vary slightly from our data, if they occured in-between our weather recording intervals... More about our weather records


Nablus weather history for previous 24 hours

Time TempWeatherWind HumidityBarometerVisibility
5:50 PM
Wed, Oct 7
75 °FLight rain. Scattered clouds.8 mph74%29.80 "HgN/A
5:20 PM75 °FScattered clouds.8 mph78%29.83 "HgN/A
4:50 PM75 °FScattered clouds.7 mph78%29.80 "HgN/A
4:20 PM73 °FScattered clouds.6 mph83%29.80 "HgN/A
3:50 PM73 °FScattered clouds.8 mph83%29.80 "HgN/A
3:20 PM75 °FRain. Scattered clouds.9 mph78%29.80 "HgN/A
2:50 PM75 °FScattered clouds.14 mph78%29.80 "HgN/A
2:20 PM75 °FScattered clouds.16 mph74%29.80 "HgN/A
1:50 PM79 °FPartly sunny.16 mph70%29.80 "HgN/A
1:20 PM81 °FPartly sunny.13 mph66%29.80 "HgN/A
12:50 PM81 °FScattered clouds.10 mph66%29.80 "HgN/A
12:20 PM81 °FPassing clouds.14 mph66%29.80 "HgN/A
11:50 AM79 °FScattered clouds.13 mph70%29.80 "HgN/A
11:20 AM77 °FPassing clouds.13 mph74%29.80 "HgN/A
10:50 AM75 °FPassing clouds.14 mph78%29.80 "HgN/A
10:20 AM73 °FPassing clouds.13 mph83%29.80 "HgN/A
9:50 AM72 °FScattered clouds.12 mph88%29.80 "HgN/A
9:20 AM70 °FLight rain. Scattered clouds.13 mph94%29.80 "HgN/A
8:50 AM70 °FLight rain. Scattered clouds.14 mph88%29.80 "HgN/A
8:20 AM70 °FPassing clouds.13 mph88%29.77 "HgN/A
7:50 AM68 °FPassing clouds.12 mph94%29.77 "HgN/A
7:20 AM70 °FPassing clouds.13 mph88%29.77 "HgN/A
6:50 AM68 °FPassing clouds.10 mph94%29.74 "HgN/A
6:20 AM68 °FPassing clouds.13 mph88%29.74 "HgN/A
5:50 AM70 °FLight rain. Passing clouds.13 mph88%29.74 "HgN/A
5:20 AM70 °FRain. Passing clouds.9 mph88%29.74 "HgN/A
4:50 AM70 °FPassing clouds.8 mph88%29.74 "HgN/A
4:20 AM70 °FThundershowers. Overcast.7 mph88%29.74 "HgN/A
3:50 AM70 °FLight rain. Partly cloudy.8 mph88%29.74 "HgN/A
3:20 AM68 °FPassing clouds.9 mph88%29.74 "HgN/A
2:50 AM68 °FRain. Passing clouds.9 mph88%29.77 "Hg5 mi
2:20 AM73 °FPassing clouds.7 mph65%29.74 "HgN/A
1:50 AM73 °FPassing clouds.9 mph65%29.74 "HgN/A
12:50 AM73 °FPassing clouds.7 mph69%29.77 "HgN/A
12:20 AM73 °FPassing clouds.6 mph69%29.80 "HgN/A
11:50 PM
Tue, Oct 6
73 °FPassing clouds.7 mph69%29.80 "HgN/A
11:20 PM75 °FPassing clouds.8 mph65%29.80 "HgN/A
10:50 PM75 °FPassing clouds.8 mph65%29.80 "HgN/A
10:20 PM75 °FPassing clouds.8 mph65%29.80 "HgN/A
9:50 PM77 °FRain. Passing clouds.8 mph61%29.80 "HgN/A
9:20 PM77 °FPassing clouds.6 mph61%29.80 "HgN/A
8:50 PM77 °FPassing clouds.3 mph61%29.80 "HgN/A
8:20 PM77 °FPassing clouds.3 mph57%29.80 "HgN/A
7:50 PM77 °FClear.5 mph57%29.80 "Hg10 mi
7:20 PM79 °FPassing clouds.7 mph54%29.80 "HgN/A
Weather by CustomWeather, © 2015

See weather overviewHow to use our weather pages